User: anonymous   Login
Location: Paderno d�Adda
(45.6667°N, 9.4333°E)
Time: 23:03:21
(UTC+00:00)
Language:

Cosmos 494 Rocket - Orbit

View from above orbital plane
View from above orbital plane
View from above satellite
View from above satellite

Ground track
Ground track

The orbit data is extracted from the following two-line orbital elements,

1 06061U 72043B   21210.55582483  .00000029  00000-0  17283-4 0  9991
2 06061  74.0569 283.2883 0019412  33.1427 327.0940 14.40625875574516
Epoch (UTC): 29 July 2021 13:20:23
Eccentricity: 0.0019412
inclination: 74.0569°
perigee height: 742 km
apogee height: 770 km
right ascension of ascending node: 283.2883°
argument of perigee: 33.1427°
revolutions per day: 14.40625875
mean anomaly at epoch: 327.0940°
orbit number at epoch: 57451

The dashed part of the orbit path shows where the satellite is in the earth's shadow,  

DLR